Flag for Germany Weather past 2 weeks in Mühlacker, Baden-Württemberg, Germany

Now
57 °F

Clear.


Feels Like: 57 °F
Forecast: 47 / 68 °F
Wind: 3 mph from West

Location: Stuttgart-Echterdingen

Current Time: Sep 1, 2014 at 11:29:53 PM

Latest Report: Sep 1, 2014 at 10:50 PM


Visibility: 10 mi

Pressure: 30.18 "Hg

Humidity: 82%

Dew point: 52 °F

Location of MühlackerLocation

Historic Weather in Mühlacker — Graph

°F

Mühlacker temperature yesterday

Maximum temperature yesterday: 61 °F (at 12:20 AM)
Minimum temperature yesterday: 54 °F (at 8:50 PM)
Average temperature yesterday: 58 °F

Past Weeks' High & Low Weather Summary

 TemperatureHumidityPressure
High73 °F (Aug 28, 3:20 PM)100% (Aug 25, 6:20 AM)30.18 "Hg (Aug 25, 6:20 AM)
Low45 °F (Aug 25, 5:20 AM)38% (Aug 22, 4:20 PM)29.68 "Hg (Aug 26, 5:50 AM)
Average59 °F77%30.01 "Hg
* Reported Aug 17 10:20 PM — Sep 1 10:20 PM, Mühlacker, Weather by CustomWeather, © 2014

Note: Actual official high and low records may vary slightly from our data, if they occured in-between our weather recording intervals... More about our weather records

Advertising

Mühlacker weather history for previous 24 hours

 ConditionsComfort  
Time TempWeatherWind HumidityBarometerVisibility
10:20 PM
Sep 1
57 °FClear.2 mph82%30.18 "Hg10 mi
9:50 PM57 °FClear.2 mph82%30.18 "Hg10 mi
9:20 PM59 °FClear.2 mph77%30.18 "Hg10 mi
8:50 PM59 °FPartly sunny.2 mph77%30.18 "HgN/A
8:20 PM59 °FPartly sunny.3 mph72%30.15 "HgN/A
7:50 PM59 °FPartly sunny.3 mph72%30.15 "HgN/A
7:20 PM59 °FPartly sunny.5 mph68%30.15 "HgN/A
6:50 PM59 °FPartly sunny.3 mph68%30.15 "HgN/A
6:20 PM59 °FPartly sunny.6 mph72%30.15 "HgN/A
5:50 PM59 °FPartly sunny.6 mph72%30.15 "HgN/A
5:20 PM59 °FPartly sunny.5 mph77%30.15 "HgN/A
4:50 PM59 °FPartly sunny.6 mph72%30.15 "HgN/A
4:20 PM59 °FPartly sunny.7 mph77%30.15 "HgN/A
3:50 PM59 °FPartly sunny.5 mph72%30.15 "HgN/A
3:20 PM59 °FPartly sunny.7 mph68%30.15 "HgN/A
2:50 PM61 °FPartly sunny.5 mph63%30.15 "HgN/A
2:20 PM61 °FPartly sunny.3 mph68%30.15 "HgN/A
1:50 PM59 °FBroken clouds.3 mph68%30.15 "HgN/A
1:20 PM57 °FPartly sunny.5 mph77%30.15 "HgN/A
12:50 PM55 °FPartly sunny.5 mph82%30.15 "HgN/A
12:20 PM55 °FSprinkles. Partly sunny.9 mph82%30.15 "HgN/A
11:50 AM55 °FBroken clouds.6 mph82%30.15 "HgN/A
11:20 AM55 °FBroken clouds.5 mph82%30.15 "HgN/A
10:50 AM55 °FPartly sunny.5 mph82%30.15 "HgN/A
10:20 AM55 °FPartly sunny.5 mph77%30.15 "HgN/A
9:50 AM54 °FPartly sunny.8 mph88%30.12 "HgN/A
9:20 AM54 °FPartly sunny.6 mph88%30.12 "HgN/A
8:50 AM54 °FPartly sunny.9 mph88%30.12 "HgN/A
8:20 AM54 °FScattered clouds.8 mph88%30.09 "HgN/A
7:50 AM54 °FPartly sunny.7 mph88%30.09 "HgN/A
7:20 AM54 °FPassing clouds.6 mph88%30.09 "HgN/A
6:50 AM54 °FPassing clouds.6 mph88%30.09 "HgN/A
6:20 AM54 °FPassing clouds.8 mph88%30.07 "HgN/A
5:50 AM54 °FPassing clouds.8 mph88%30.07 "HgN/A
5:20 AM52 °FPassing clouds.8 mph94%30.07 "HgN/A
4:50 AM52 °FPartly cloudy.8 mph94%30.07 "HgN/A
4:20 AM52 °FPassing clouds.7 mph94%30.07 "HgN/A
3:50 AM54 °FPassing clouds.7 mph94%30.07 "HgN/A
3:20 AM54 °FPassing clouds.7 mph94%30.07 "HgN/A
2:50 AM54 °FPassing clouds.6 mph94%30.04 "HgN/A
2:20 AM54 °FPassing clouds.3 mph94%30.04 "HgN/A
1:50 AM55 °FPassing clouds.6 mph88%30.04 "HgN/A
1:20 AM55 °FPassing clouds.5 mph88%30.04 "HgN/A
12:50 AM55 °FPassing clouds.7 mph88%30.04 "HgN/A
12:20 AM55 °FPassing clouds.6 mph88%30.04 "HgN/A
11:50 PM
Aug 31
55 °FPartly cloudy.5 mph88%30.04 "HgN/A
11:20 PM55 °FLight rain. Partly cloudy.7 mph94%30.04 "HgN/A
Weather by CustomWeather, © 2014

See weather overviewHow to use our weather pages